SCP
0 0 0 0 0 0 0 0 0 0 0 0 0 0 0 0 0 0 0 0 0 1 2 3 3 3 2 1 1 1 1 1 1 1 1 1 0 0 0 0 0 0 0 0
0 0 0 0 0 0 0 0 0 0 0 0 0 0 0 0 0 0 0 0 0 1 2 2 2 2 1 1 1 1 1 1 1 1 1 1 1 0 0 0 0 0 0 0
0 0 0 0 0 0 0 0 0 0 0 0 0 0 0 0 0 0 0 0 0 0 1 2 1 1 1 1 1 1 1 1 1 0 0 1 1 0 0 0 0 0 0 0
0 0 0 0 0 0 0 0 0 0 0 0 0 0 0 0 0 0 0 0 0 0 0 1 1 0 0 1 1 1 1 1 0 0 0 0 0 0 0 0 0 0 0 0
0 0 0 0 0 0 0 0 0 0 0 0 0 0 0 0 0 0 0 0 0 0 0 0 0 0 1 1 1 1 1 0 0 0 0 0 0 0 0 0 0 0 0 0
0 0 0 0 0 0 0 0 0 0 0 0 0 0 0 0 0 0 0 0 0 0 0 0 0 0 0 1 1 1 1 0 0 0 0 0 0 0 0 0 0 0 0 0
0 0 0 0 0 0 0 0 0 0 0 0 0 0 0 0 0 0 0 0 0 0 0 0 0 0 0 1 1 1 1 0 0 0 0 0 0 0 0 0 0 0 0 0
0 0 0 0 0 0 0 0 0 0 0 0 0 0 0 0 0 0 0 0 0 0 0 0 0 0 0 0 1 1 1 0 0 0 0 0 0 0 0 0 0 0 0 0
0 0 0 0 0 0 0 0 0 0 0 0 0 0 0 0 0 0 0 0 0 0 0 0 0 0 0 0 1 1 1 0 0 0 0 0 0 0 0 0 0 0 0 0
0 0 0 0 0 0 0 0 0 0 0 0 0 0 0 0 0 0 0 0 0 0 0 0 0 0 0 0 0 0 0 0 0 0 0 0 0 0 0 0 0 0 0 0
0 0 0 0 0 0 0 0 0 0 0 0 0 0 0 0 0 0 0 0 0 0 0 0 0 0 0 0 0 0 0 0 0 0 0 0 0 0 0 0 0 0 0 0
0 0 0 0 0 0 0 0 0 0 0 0 0 0 0 0 0 0 0 0 0 0 0 0 0 0 0 0 0 0 0 0 0 0 0 0 0 0 0 0 0 0 0 0
0 0 0 0 0 0 0 0 0 0 0 0 0 0 0 0 0 0 0 0 0 0 0 0 0 0 0 0 0 0 0 0 0 0 0 0 0 0 0 0 0 0 0 0
0 0 0 0 0 0 0 0 0 0 0 0 0 0 0 0 0 0 0 0 0 0 0 0 0 0 0 0 0 0 0 0 0 0 0 0 0 0 0 0 0 0 0 0
0 0 0 0 0 0 0 0 0 0 0 0 0 0 0 0 0 0 0 0 0 0 0 0 0 0 0 0 0 0 0 0 0 0 0 0 0 0 0 0 0 0 0 0
0 0 0 0 0 0 0 0 0 0 0 0 0 0 0 0 0 0 0 0 0 0 0 0 0 0 0 0 0 0 0 0 0 0 0 0 0 0 0 0 0 0 0 0
0 0 0 0 0 0 0 0 0 0 0 0 0 0 0 0 0 0 0 0 0 0 0 0 0 0 0 0 0 0 0 0 0 0 0 0 0 0 0 0 0 0 0 0
0 0 0 0 0 0 0 0 0 0 0 0 0 0 0 0 0 0 0 0 0 0 0 0 0 0 0 0 0 0 0 0 0 0 0 0 0 0 0 0 0 0 0 0
0 0 0 0 0 0 0 0 0 0 0 0 0 0 0 0 0 0 0 0 0 0 0 0 0 0 0 0 0 0 0 0 0 0 0 0 0 0 0 0 0 0 0 0
0 0 0 0 0 0 0 0 0 0 0 0 0 0 0 0 0 0 0 0 0 0 0 0 0 0 0 0 0 0 0 0 0 0 0 0 0 0 0 0 0 0 0 0
0 0 0 0 0 0 0 0 0 0 0 0 0 0 0 0 0 0 0 0 0 0 0 0 0 0 0 0 0 0 0 0 0 0 0 0 0 0 0 0 0 0 0 0
0 0 0 0 0 0 0 0 0 0 0 0 0 0 0 0 0 0 0 0 0 0 0 0 0 0 0 0 0 0 0 0 0 0 0 0 0 0 0 0 0 0 0 0
0 0 0 0 0 0 0 0 0 0 0 0 0 0 0 0 0 0 0 0 0 0 0 0 0 0 0 0 0 0 0 0 0 0 0 0 0 0 0 0 0 0 0 0
0 0 0 0 0 0 0 0 0 0 0 0 0 0 0 0 0 0 0 0 0 0 0 0 0 0 0 0 0 0 0 0 0 0 0 0 0 0 0 0 0 0 0 0
0 0 0 0 0 0 0 0 0 0 0 0 0 0 0 0 0 0 0 0 0 0 0 0 0 0 0 0 0 0 0 0 0 0 0 0 0 0 0 0 0 0 0 0
0 0 0 0 0 0 0 0 0 0 0 0 0 0 0 0 0 0 0 0 0 0 0 0 0 0 0 0 0 0 0 0 0 0 0 0 0 0 0 0 0 0 0 0
Wind_Speed
4 5 9 11 9 4 6 6 5 4 2 4 6 8 8 4 3 4 4 5 6 7 5 3 4 5 5 5 6 6 6 5 5 3 2 2 1 0 0 0 0 1 1 2
4 8 8 5 5 4 5 5 4 1 1 3 4 7 6 5 5 6 7 7 7 5 3 3 4 4 6 7 7 7 6 6 5 3 2 2 2 1 1 0 0 0 0 1
8 4 6 7 6 6 5 7 6 3 1 1 1 6 5 4 3 3 3 4 5 7 7 5 5 5 6 7 8 8 7 6 5 4 3 3 2 2 1 1 1 1 0 1
5 3 6 7 7 7 6 5 5 4 3 2 1 5 6 3 3 4 4 4 5 5 4 5 5 6 7 7 7 7 7 6 6 6 5 5 3 2 2 1 1 1 1 1
4 5 7 8 7 7 4 4 5 4 3 1 1 3 8 1 4 6 5 5 4 4 5 5 6 7 6 6 6 6 6 6 5 6 6 5 3 2 1 1 0 0 1 1
1 1 4 5 3 6 6 6 5 4 3 4 6 6 8 4 6 5 4 4 3 3 3 3 3 3 3 3 4 5 6 5 5 5 5 5 5 4 3 1 1 0 1 1
1 1 0 3 5 4 5 7 3 1 2 7 4 5 9 5 4 4 5 4 3 2 1 2 3 4 4 4 5 5 6 5 4 4 4 4 5 5 4 3 2 1 1 1
4 2 2 2 5 6 6 7 7 7 6 3 3 7 8 3 2 2 1 1 1 1 1 2 2 3 4 4 5 5 6 5 5 4 4 3 4 3 2 2 2 2 1 2
5 2 1 1 2 7 6 4 4 5 2 2 5 5 7 1 2 2 2 3 2 2 2 2 2 2 2 3 4 5 5 4 4 4 3 3 3 3 2 2 1 1 1 1
4 3 1 1 3 3 4 6 4 5 5 4 3 4 5 2 2 1 1 1 2 2 3 2 2 2 2 2 3 3 4 4 3 3 3 2 2 2 2 2 1 1 1 1
2 4 1 1 3 4 4 3 3 3 4 5 3 6 2 3 2 2 1 1 2 2 2 2 3 3 3 3 4 4 4 4 3 2 2 2 2 2 2 1 1 1 1 1
2 4 2 1 1 1 3 5 5 5 3 3 3 5 3 1 0 2 2 2 2 3 3 3 4 4 4 4 4 4 3 3 2 2 2 2 2 2 1 0 0 0 1 1
3 5 3 2 2 1 1 2 3 4 3 3 4 5 3 3 3 3 3 3 3 4 4 4 4 4 4 3 3 3 3 3 2 3 3 2 2 2 1 0 1 1 1 2
4 3 4 7 5 4 2 2 3 4 3 4 6 5 4 2 1 2 2 2 3 4 4 4 3 3 3 3 3 3 3 3 3 3 3 2 1 1 0 1 1 1 1 1
4 2 1 1 1 2 2 4 4 5 5 6 5 5 5 2 1 1 2 3 4 3 3 3 3 2 3 3 3 3 3 2 2 3 2 2 1 1 1 1 1 1 1 2
3 2 1 1 1 1 1 3 4 4 4 4 3 5 3 1 2 2 3 4 4 3 2 2 2 2 2 2 2 2 2 2 3 3 2 2 2 2 1 1 1 1 1 2
2 3 2 0 0 2 3 4 4 3 3 5 6 5 2 1 2 3 3 3 3 3 2 2 1 1 1 1 1 2 2 2 3 3 2 2 2 2 2 2 2 1 2 2
3 3 2 2 3 3 4 1 2 3 2 2 2 2 3 3 2 1 1 3 3 3 2 1 1 2 2 2 2 2 2 2 2 2 2 2 2 2 2 2 2 2 1 1
2 4 3 2 2 3 4 2 0 2 2 1 3 3 2 4 4 3 2 2 2 2 2 1 1 2 2 2 2 2 3 3 3 3 2 2 2 2 2 2 2 2 2 2
3 3 3 2 3 4 3 3 2 2 3 2 2 3 3 3 2 2 0 2 3 3 3 2 3 3 3 2 2 3 3 3 3 3 3 2 2 2 2 2 2 2 1 2
2 2 2 2 2 4 4 5 1 3 4 2 0 2 2 1 1 2 2 2 3 3 3 3 3 2 2 2 2 2 2 3 3 3 3 2 2 2 2 2 2 2 2 2
1 2 1 2 2 5 5 2 1 3 2 2 2 1 2 2 2 3 3 3 3 3 3 2 2 2 2 2 2 2 2 3 3 3 3 3 2 2 2 2 2 2 1 2
1 2 2 3 3 2 2 1 1 1 1 2 2 2 2 2 2 2 2 2 2 2 2 2 1 2 2 2 2 1 3 3 3 3 3 3 3 2 2 2 2 2 1 1
2 1 1 1 2 2 3 3 3 3 2 2 1 1 2 2 1 1 1 1 1 2 1 1 2 2 2 2 2 1 3 2 2 2 3 2 2 3 2 2 2 1 1 1
3 1 0 1 3 3 3 4 3 3 4 4 3 2 2 2 1 1 1 1 1 1 2 1 1 1 2 3 3 3 3 2 2 2 2 2 2 2 2 2 2 2 2 2
1 1 1 2 2 1 3 4 4 3 4 3 3 3 3 2 1 1 1 1 1 1 1 1 1 2 2 3 3 4 3 2 2 2 2 2 2 2 2 2 3 4 3 4
Wind_Direction
165 165 197 200 194 170 154 162 190 211 196 177 219 245 256 259 222 230 232 226 224 225 226 199 185 172 161 159 162 163 156 152 141 132 135 131 142 136 56 231 181 174 173 166
146 216 203 159 161 163 161 169 187 222 154 184 238 261 258 245 223 215 214 221 223 224 217 197 180 168 172 176 174 170 168 164 165 160 149 144 144 156 174 134 43 133 191 186
188 196 162 159 166 180 197 186 183 174 52 37 318 291 262 256 234 235 227 223 221 212 210 198 184 183 178 181 182 179 175 169 163 146 120 96 81 66 59 7 322 306 276 236
208 190 153 165 184 170 218 191 166 153 130 262 163 273 278 256 263 250 246 237 235 229 214 200 188 185 189 192 183 176 171 164 159 151 150 150 157 178 203 205 240 294 302 293
201 169 163 184 190 161 174 145 144 147 144 239 206 227 277 270 251 252 245 240 242 234 213 203 196 192 191 184 174 170 162 159 158 160 161 158 155 162 155 148 147 330 335 332
154 175 173 177 147 148 128 91 74 66 103 235 210 194 268 230 223 248 249 246 251 245 220 203 189 162 154 153 156 155 152 156 158 158 159 159 158 156 149 149 165 282 320 323
42 4 131 127 119 135 130 119 104 112 206 239 192 199 249 245 233 227 240 245 251 238 186 153 147 150 149 151 154 153 152 154 157 156 160 163 163 165 171 176 185 204 265 289
154 215 204 162 157 162 171 154 163 182 201 244 189 223 251 261 282 264 230 164 66 50 100 135 149 154 156 154 151 152 155 153 156 157 158 151 153 160 173 181 184 199 223 250
158 208 25 120 124 136 151 181 149 126 120 178 237 271 294 315 356 20 58 66 59 54 68 91 97 104 126 136 147 153 150 145 150 149 139 139 148 157 165 170 167 192 229 250
141 150 336 10 79 40 143 142 124 140 159 214 252 249 246 259 290 342 34 50 42 47 57 63 68 68 80 102 108 113 125 134 136 133 141 138 148 156 155 145 157 207 255 267
104 129 22 78 156 161 116 130 139 144 163 166 214 258 245 233 230 213 194 106 74 61 65 62 56 55 68 76 88 98 104 107 112 117 119 117 122 118 118 126 182 231 261 264
108 115 131 258 290 190 144 158 149 161 200 177 178 262 327 288 223 131 98 75 67 63 60 60 60 58 65 70 73 83 92 97 103 108 106 105 102 98 98 103 278 285 289 284
129 118 103 24 348 24 112 149 147 126 124 168 186 255 348 32 41 58 86 79 74 73 70 65 62 59 62 65 66 69 75 83 85 93 95 90 86 91 88 353 318 320 303 296
101 117 166 187 202 172 179 176 155 138 168 204 222 247 302 357 24 36 72 91 89 85 81 76 66 55 55 59 63 65 57 63 76 81 82 79 73 75 40 338 332 321 305 293
86 121 156 224 209 157 193 200 186 191 195 200 228 235 258 257 222 161 130 110 96 85 77 75 74 62 54 51 54 61 53 51 68 73 63 44 38 46 37 9 335 324 316 313
70 121 109 15 55 133 243 225 204 211 203 211 235 265 263 204 107 112 127 123 115 101 80 67 60 62 58 54 58 58 48 39 61 65 48 32 33 35 21 355 345 341 334 330
68 107 103 246 356 73 261 240 205 197 201 186 220 230 166 128 151 163 165 152 146 134 108 84 68 64 58 52 71 72 48 45 56 53 36 30 32 27 4 356 6 347 332 340
137 116 121 130 96 205 250 298 181 175 234 221 203 176 174 172 150 96 123 151 144 130 112 86 70 47 30 39 46 52 50 48 51 43 24 18 29 21 5 3 353 338 335 336
147 135 118 126 161 265 298 327 90 159 281 258 190 180 150 119 82 30 23 116 129 118 101 81 57 54 44 39 45 59 43 37 38 22 4 355 9 3 357 351 337 329 339 334
57 102 118 125 149 224 262 310 304 112 287 300 184 178 155 126 140 242 74 98 94 82 75 66 50 51 47 28 45 61 38 29 13 351 340 339 352 347 332 321 312 311 313 310
35 52 116 148 189 260 293 302 4 153 245 320 313 175 157 185 200 150 109 81 88 84 71 62 53 44 23 21 50 51 32 1 337 337 339 345 346 333 319 313 305 303 309 319
152 139 163 144 179 257 327 20 143 231 306 354 7 51 98 81 76 82 84 82 76 70 61 54 49 21 8 25 48 32 358 333 337 343 346 346 346 340 338 330 319 317 322 330
162 194 184 185 210 271 319 280 299 296 329 337 348 7 85 95 80 64 60 72 69 67 52 41 55 16 5 14 34 8 325 332 341 347 343 341 340 336 331 325 321 320 326 327
325 332 160 247 289 301 335 341 356 6 349 344 9 45 83 98 89 61 52 46 47 41 26 23 38 15 350 355 356 326 318 328 333 328 322 321 324 322 328 323 313 309 303 296
298 324 27 279 298 328 357 1 355 14 21 23 28 40 79 106 90 59 16 4 11 12 1 11 16 347 331 338 339 334 332 334 331 321 315 317 318 313 319 318 305 298 274 268
309 223 207 249 288 282 305 334 355 17 14 16 29 33 37 61 69 39 24 6 359 354 358 356 348 339 332 334 330 328 324 316 308 314 317 312 309 306 306 313 322 323 310 324